Brownsville, TX

6:47 PM CDT on April 23, 2017 (GMT -0500)
Brownsville-South Padre I International

Weather History for KBRO - January, 2014

Change the Weather History Date:

Friday, January 31, 2014

  Actual Average Record
Temperature  
Mean Temperature 66 °F 62 °F  
Max Temperature 78 °F 72 °F 93 °F (1971)
Min Temperature 53 °F 53 °F 23 °F (1949)
Degree Days  
Heating Degree Days 0 5  
Month to date heating degree days 233 176  
Since 1 July heating degree days 558 399  
Cooling Degree Days 1 2  
Month to date cooling degree days 21 59  
Year to date cooling degree days 21 59  
Growing Degree Days 16 (Base 50)    
Moisture  
Dew Point 61 °F    
Average Humidity 82    
Maximum Humidity 100    
Minimum Humidity 64    
Precipitation  
Precipitation 0.00 in 0.04 in 1.12 in (1945)
Month to date precipitation 0.68 1.27  
Year to date precipitation 0.68 1.27  
Sea Level Pressure  
Sea Level Pressure 29.91 in    
Wind  
Wind Speed 14 mph (SSE)    
Max Wind Speed 28 mph    
Max Gust Speed 36 mph    
Visibility 9 miles    
Events      
T = Trace of Precipitation, MM = Missing Value Source: NWS Daily Summary

Daily Weather History Graph

Daily Weather History Graph

Search for Another Location

Airport or City:

Trip Planner

Search our weather history database for the weather conditions in past years. The results will help you decide how hot, cold, wet, or windy it might be!

Date:

Astronomy

Jan. 31, 2014 Rise Set
Actual Time 7:14 AM CST 6:12 PM CST
Civil Twilight 6:49 AM CST 6:36 PM CST
Nautical Twilight 6:22 AM CST 7:04 PM CST
Astronomical Twilight 5:55 AM CST 7:31 PM CST
Moon 7:34 AM CST (1/31) 7:25 PM CST (1/31)
Length of Visible Light 11h 46m
Length of Day
10h 58m
New Moon, 1% of the Moon is Illuminated
Jan 31
New Moon
Feb 6
First Quarter
Feb 14
Full
Feb 22
Last Quarter
Mar 1
New

Hourly Weather History & Observations

Time (CST) Temp. Dew Point Humidity Pressure Visibility Wind Dir Wind Speed Gust Speed Precip Events Conditions
12:18 AM 60.8 °F 57.2 °F 88% 29.97 in 10.0 mi South 10.4 mph - N/A   Mostly Cloudy
12:40 AM 60.8 °F 57.2 °F 88% 29.96 in 10.0 mi South 12.7 mph - N/A   Scattered Clouds
12:53 AM 61.0 °F 59.0 °F 93% 29.95 in 10.0 mi South 13.8 mph - N/A   Mostly Cloudy
1:48 AM 60.8 °F 57.2 °F 88% 29.95 in 10.0 mi South 12.7 mph - N/A   Partly Cloudy
1:53 AM 61.0 °F 57.9 °F 90% 29.94 in 10.0 mi South 11.5 mph - N/A   Partly Cloudy
2:53 AM 60.1 °F 57.9 °F 93% 29.94 in 10.0 mi South 9.2 mph - N/A   Clear
3:22 AM 60.8 °F 57.2 °F 88% 29.93 in 10.0 mi South 10.4 mph - N/A   Mostly Cloudy
3:53 AM 59.0 °F 57.0 °F 93% 29.92 in 10.0 mi South 9.2 mph - N/A   Partly Cloudy
4:53 AM 57.9 °F 57.0 °F 97% 29.92 in 10.0 mi South 10.4 mph - N/A   Clear
5:53 AM 55.9 °F 55.0 °F 97% 29.93 in 10.0 mi SSE 5.8 mph - N/A   Clear
6:43 AM 53.6 °F 53.6 °F 100% 29.94 in 1.8 mi SSE 4.6 mph - N/A   Partly Cloudy
6:53 AM 54.0 °F 54.0 °F 100% 29.95 in 1.0 mi SSE 4.6 mph - N/A   Mist
7:20 AM 53.6 °F 53.6 °F 100% 29.95 in 0.8 mi SSE 6.9 mph - N/A   Mist
7:26 AM 53.6 °F 53.6 °F 100% 29.95 in 1.2 mi SSE 6.9 mph - N/A   Scattered Clouds
7:36 AM 53.6 °F 53.6 °F 100% 29.95 in 3.0 mi SSE 5.8 mph - N/A   Partly Cloudy
7:53 AM 55.9 °F 55.9 °F 100% 29.94 in 8.0 mi SSE 5.8 mph - N/A   Clear
8:53 AM 61.0 °F 59.0 °F 93% 29.95 in 10.0 mi South 12.7 mph - N/A   Clear
9:53 AM 68.0 °F 61.0 °F 78% 29.96 in 10.0 mi South 16.1 mph - N/A   Clear
10:53 AM 73.0 °F 62.1 °F 68% 29.97 in 10.0 mi South 17.3 mph - N/A   Clear
11:27 AM 73.4 °F 62.6 °F 69% 29.97 in 10.0 mi South 17.3 mph 24.2 mph N/A   Mostly Cloudy
11:53 AM 75.0 °F 63.0 °F 66% 29.95 in 10.0 mi South 18.4 mph 31.1 mph N/A   Scattered Clouds
12:53 PM 75.9 °F 63.0 °F 64% 29.92 in 10.0 mi South 20.7 mph 28.8 mph N/A   Partly Cloudy
1:46 PM 75.2 °F 62.6 °F 65% 29.89 in 10.0 mi South 19.6 mph 29.9 mph N/A   Mostly Cloudy
1:53 PM 75.9 °F 64.0 °F 67% 29.88 in 10.0 mi South 21.9 mph 27.6 mph N/A   Mostly Cloudy
2:35 PM 75.2 °F 62.6 °F 65% 29.87 in 10.0 mi SSE 23.0 mph 32.2 mph N/A   Scattered Clouds
2:53 PM 73.9 °F 63.0 °F 68% 29.86 in 10.0 mi South 20.7 mph 31.1 mph N/A   Mostly Cloudy
3:10 PM 73.4 °F 62.6 °F 69% 29.86 in 10.0 mi South 20.7 mph 32.2 mph N/A   Scattered Clouds
3:17 PM 73.4 °F 62.6 °F 69% 29.87 in 10.0 mi SSE 25.3 mph 31.1 mph N/A   Mostly Cloudy
3:43 PM 75.2 °F 62.6 °F 65% 29.86 in 10.0 mi South 24.2 mph 34.5 mph N/A   Scattered Clouds
3:53 PM 75.0 °F 62.1 °F 64% 29.85 in 10.0 mi South 25.3 mph 34.5 mph N/A   Partly Cloudy
4:53 PM 73.0 °F 62.1 °F 68% 29.84 in 10.0 mi SSE 21.9 mph 34.5 mph N/A   Clear
5:53 PM 70.0 °F 64.0 °F 81% 29.86 in 10.0 mi SSE 15.0 mph 21.9 mph N/A   Clear
6:53 PM 66.9 °F 64.0 °F 90% 29.86 in 10.0 mi SSE 9.2 mph - N/A   Partly Cloudy
7:08 PM 66.2 °F 64.4 °F 94% 29.86 in 10.0 mi SSE 9.2 mph - N/A   Mostly Cloudy
7:45 PM 66.2 °F 64.4 °F 94% 29.87 in 10.0 mi SSE 11.5 mph - N/A   Mostly Cloudy
7:53 PM 66.9 °F 64.9 °F 93% 29.87 in 10.0 mi SSE 12.7 mph - N/A   Scattered Clouds
8:16 PM 66.2 °F 64.4 °F 94% 29.88 in 10.0 mi SSE 12.7 mph - N/A   Mostly Cloudy
8:44 PM 66.2 °F 64.4 °F 94% 29.88 in 10.0 mi SSE 11.5 mph - N/A   Scattered Clouds
8:53 PM 66.9 °F 64.0 °F 90% 29.88 in 10.0 mi SSE 13.8 mph - N/A   Partly Cloudy
9:53 PM 68.0 °F 64.9 °F 90% 29.88 in 10.0 mi SSE 13.8 mph - N/A   Mostly Cloudy
10:53 PM 68.0 °F 64.9 °F 90% 29.88 in 10.0 mi SSE 12.7 mph - N/A   Mostly Cloudy
11:53 PM 68.0 °F 66.0 °F 93% 29.86 in 10.0 mi SSE 13.8 mph - N/A   Mostly Cloudy